User: anonymous   Login
Location: Unspecified
(0.0000°N, 0.0000°E)
Time: 21:35:17
(UTC+01:00)
Language:

Cosmos 1538 Rocket - Orbit

View from above orbital plane
View from above orbital plane
View from above satellite
View from above satellite

Ground track
Ground track

The orbit data is extracted from the following two-line orbital elements,

1 14760U 84019B   17346.93755411 -.00000077  00000-0 -17326-4 0  9995
2 14760  74.0406 153.9384 0028461 327.9614  31.9807 14.35836984769233
Epoch (UTC): 12 December 2017 22:30:04
Eccentricity: 0.0028461
inclination: 74.0406°
perigee height: 752 km
apogee height: 792 km
right ascension of ascending node: 153.9384°
argument of perigee: 327.9614°
revolutions per day: 14.35836984
mean anomaly at epoch: 31.9807°
orbit number at epoch: 76923

The dashed part of the orbit path shows where the satellite is in the earth's shadow,  

DLR